Current Version              Previous Version:    01  02  03  04  05  06  07  08  09  10  11  12  13  14  15  16  17  18  19  20  21  22  23  24  25  26  27  28  29  30  
   31  32  33  34  35  36  37  38  39  40  41  42  43  44  45  46  47  48  49  50  51  52  53  54  55  56  57  58  59  60  

[Printable]
209
ASUS44 KEWX 310002
RWRTX
SOUTH TEXAS REGIONAL WEATHER ROUNDUP
NATIONAL WEATHER SERVICE AUSTIN/SAN ANTONIO TX
700 PM CDT WED JUL 30 2014

NOTE: "FAIR" INDICATED FEW OR NO CLOUDS BELOW 12,000 FEET WITH NO
SIGNIFICANT WEATHER AND/OR OBSTRUCTIONS TO VISIBILITY.

* - THESE STATIONS ARE NOT NWS OR FAA STATIONS...AND ARE NOT SUBJECT
    TO NWS AND FAA QUALITY CONTROL.

TXZ171-172-183>190-310100-
TEXAS HILL COUNTRY AND EDWARDS PLATEAU

CITY           SKY/WX    TMP DP  RH WIND       PRES   REMARKS
JUNCTION       MOSUNNY   98  49  18 S13G18    29.90F HX  95
6HR MIN TEMP:  93; 6HR MAX TEMP:  99;

*LLANO         MOSUNNY   99  55  23 S13       29.92F HX  97
BURNET         MOSUNNY   93  57  29 SE8G17    29.94F HX  91
6HR MIN TEMP:  90; 6HR MAX TEMP:  97;

*HORSESHOE BAY MOSUNNY   95  52  23 S9G17     29.92S HX  92
6HR MIN TEMP:  92; 6HR MAX TEMP:  97;

*KERRVILLE     SUNNY     94  54  25 SE13      29.93F HX  92
6HR MIN TEMP:  92; 6HR MAX TEMP:  97;

*FREDERICKSBRG MOSUNNY   92  56  28 S8        29.94F HX  90
6HR MIN TEMP:  90; 6HR MAX TEMP:  96;

*ROCKSPRINGS   MOSUNNY   93  52  24 SE15      29.97F HX  90
*BOERNE STAGE  SUNNY     91  54  27 SE8       29.94F
*CASTROVILLE   SUNNY     99  53  21 SE13G18   29.89F HX  96
HONDO          SUNNY     97  55  24 SE12      29.89F HX  95
6HR MIN TEMP:  90; 6HR MAX TEMP:  98;

*UVALDE        SUNNY     99  46  16 S12       29.88S HX  95
6HR MIN TEMP:  93; 6HR MAX TEMP: 100;

DEL RIO        SUNNY    102  48  16 E14       29.82F HX  98
6HR MIN TEMP:  95; 6HR MAX TEMP: 104;

LAUGHLIN AFB   SUNNY    102  48  16 SE16      29.84S HX  98
6HR MIN TEMP:  95; 6HR MAX TEMP: 103;

CARRIZO SPRGS  SUNNY    100  54  20 SE8G18    29.83F HX  98
$$

TXZ173-191>194-202-209-217>225-228-310100-
CENTRAL AND SOUTH CENTRAL TEXAS

CITY           SKY/WX    TMP DP  RH WIND       PRES   REMARKS
GEORGETOWN     SUNNY     93  63  36 SE9       29.90F HX  94
AUSTIN/BERGSTM PTSUNNY   96  60  30 S13       29.89F HX  96
6HR MIN TEMP:  90; 6HR MAX TEMP:  97;

AUSTIN/MABRY   MOSUNNY   94  61  33 VRB7      29.90F HX  94
6HR MIN TEMP:  89; 6HR MAX TEMP:  96;

*AUSTIN/EXEC   MOSUNNY   93  63  36 SE7       29.91S HX  94
*LAGO VISTA    MOSUNNY   94  56  27 SE9       29.94S HX  92
6HR MIN TEMP:  91; 6HR MAX TEMP:  96;

SAN MARCOS     SUNNY     97  57  26 SE15      29.90F HX  95
6HR MIN TEMP:  91; 6HR MAX TEMP:  99;

NEW BRAUNFELS  SUNNY     96  55  25 S12       29.88F HX  94
6HR MIN TEMP:  93; 6HR MAX TEMP: 100;

RANDOLPH AFB   SUNNY     97  54  23 S14       29.90F HX  95
6HR MIN TEMP:  92; 6HR MAX TEMP:  99;

PT SAN ANTONIO NOT AVBL
SAN ANTONIO    MOSUNNY   97  56  25 S12       29.90F HX  95
6HR MIN TEMP:  90; 6HR MAX TEMP:  97;

STINSON FIELD  SUNNY     98  56  24 SE7       29.87F HX  96
6HR MIN TEMP:  92; 6HR MAX TEMP:  99;

*PLEASANTON    SUNNY     99  56  24 E9        29.87F HX  97
6HR MIN TEMP:  94; 6HR MAX TEMP: 101;

*LA GRANGE     SUNNY     95  70  44 S8        29.89F HX 101
6HR MIN TEMP:  91; 6HR MAX TEMP:  96;

*GIDDINGS      SUNNY     92  66  41 SE5       29.95S HX  95
6HR MIN TEMP:  89; 6HR MAX TEMP:  94;

*GONZALES      SUNNY     97  62  31 S12       29.89S HX  98
6HR MIN TEMP:  93; 6HR MAX TEMP: 100;

$$

TXZ163>164-176>182-195>201-210>213-226-227-235-310100-
SOUTHEAST TEXAS

CITY           SKY/WX    TMP DP  RH WIND       PRES   REMARKS
COLLEGE STN    SUNNY     91  70  49 SE12      29.92F HX  96
6HR MIN TEMP:  88; 6HR MAX TEMP:  93;

*BRYAN         SUNNY    N/A N/A N/A SE9       29.92F
*CALDWELL      MOSUNNY   93  63  36 S10       29.94F HX  94
*CROCKETT      SUNNY     91  73  55 E5        29.98F HX 100
*BRENHAM       SUNNY     92  69  47 E7        29.93S HX  97
HUNTSVILLE     SUNNY     90  70  51 E3        29.95S HX  95
6HR MIN TEMP:  88; 6HR MAX TEMP:  93;

CONROE         MOSUNNY   87  72  60 SE8       29.96S HX  93
6HR MIN TEMP:  87; 6HR MAX TEMP:  91;

HOUSTON BUSH   PTSUNNY   87  71  58 SE16      29.95S HX  93
6HR MIN TEMP:  87; 6HR MAX TEMP:  94;

HOUSTON HOBBY  PTSUNNY   87  72  60 SE14      29.95S HX  93
6HR MIN TEMP:  87; 6HR MAX TEMP:  93;

*HOUSTON SW AP MOSUNNY   86  73  65 E9        29.96S HX  92
6HR MIN TEMP:  86; 6HR MAX TEMP:  93;

PEARLAND       CLOUDY    88  73  61 SE12      29.97S HX  95
6HR MIN TEMP:  88; 6HR MAX TEMP:  92;

HOUSTON HOOKS  MOSUNNY   88  72  58 SE9       29.95S HX  94
6HR MIN TEMP:  87; 6HR MAX TEMP:  92;

ELLINGTON FLD  PTSUNNY   86  73  66 E12       29.97F HX  93
SUGAR LAND     MOSUNNY   88  74  63 SE16      29.94S HX  96
6HR MIN TEMP:  88; 6HR MAX TEMP:  94;

*HOUSTON EXEC  PTSUNNY   90  75  62 E12       29.95R HX 100
*CLEVELAND MUN MOSUNNY   86  74  68 SE3       29.97S HX  94
*WHARTON       SUNNY     90  70  52 SE13      29.94S HX  95
6HR MIN TEMP:  90; 6HR MAX TEMP:  95;

$$

TXZ214>216-236>238-310100-
THE UPPER TEXAS COAST

CITY           SKY/WX    TMP DP  RH WIND       PRES   REMARKS
*ORANGE        SUNNY     87  67  51 CALM      29.99S HX  90
6HR MIN TEMP:  86; 6HR MAX TEMP:  90;

PORT ARTHUR    MOSUNNY   86  71  60 SE9       29.97S HX  91
6HR MIN TEMP:  86; 6HR MAX TEMP:  91;

GALVESTON      SUNNY     87  75  67 SE12      29.97F HX  96
6HR MIN TEMP:  86; 6HR MAX TEMP:  91;

ANGLETON       SUNNY     86  73  65 SE10      29.96S HX  93
6HR MIN TEMP:  86; 6HR MAX TEMP:  90;

*BAY CITY      SUNNY     89  74  62 S9        29.95R HX  98
PALACIOS       SUNNY     87  73  62 SE16      29.94F HX  94
6HR MIN TEMP:  87; 6HR MAX TEMP:  91;

$$

TXZ229>234-239>247-310100-
TEXAS COASTAL BEND AND RIO GRANDE PLAINS

CITY           SKY/WX    TMP DP  RH WIND       PRES   REMARKS
VICTORIA       SUNNY     93  65  39 SE18      29.93R HX  95
6HR MIN TEMP:  93; 6HR MAX TEMP:  99;

*BEEVILLE      SUNNY     93  66  41 SE16G23   29.90S HX  95
6HR MIN TEMP:  93; 6HR MAX TEMP: 100;

ROCKPORT       SUNNY     86  73  65 SE14G23   29.92S HX  93
6HR MIN TEMP:  86; 6HR MAX TEMP:  91;

*PORT ARANSAS  SUNNY     84  74  72 SE13      29.92F HX  91
6HR MIN TEMP:  84; 6HR MAX TEMP:  88;

*PORT LAVACA   SUNNY     87  69  54 SE13G18   29.93S HX  91
6HR MIN TEMP:  87; 6HR MAX TEMP:  94;

*INGLESIDE     SUNNY     88  71  56 SE17G25   29.92S HX  94
CORPUS CHRISTI PTSUNNY   89  72  56 SE22      29.91F HX  96
6HR MIN TEMP:  89; 6HR MAX TEMP:  96;

CORPUS NAS     MOSUNNY   86  75  69 SE22      29.92S HX  95
6HR MIN TEMP:  86; 6HR MAX TEMP:  92;

*ROBSTOWN      NOT AVBL
ALICE          SUNNY     91  72  53 SE20G29   29.89S HX  98
6HR MIN TEMP:  91; 6HR MAX TEMP: 103;

KINGSVILLE NAS MOSUNNY   89  75  63 SE17G28   29.90S HX  99
6HR MIN TEMP:  89; 6HR MAX TEMP:  99;

COTULLA        SUNNY    101  55  21 SE13      29.85S HX  99
6HR MIN TEMP:  95; 6HR MAX TEMP: 103;

*FAITH RANCH   SUNNY    100  50  18 SE9G17    29.86S HX  97
LAREDO         SUNNY    105  60  22 SE10      29.85F HX 106
6HR MIN TEMP:  96; 6HR MAX TEMP: 105;

$$

TXZ248>255-310100-
DEEP SOUTH TEXAS

CITY           SKY/WX    TMP DP  RH WIND       PRES   REMARKS
BROWNSVILLE    MOSUNNY   88  77  69 SE21G28   29.91F HX 100
6HR MIN TEMP:  88; 6HR MAX TEMP:  97;

PORT ISABEL    PTSUNNY   87  75  67 SE23G29   29.91F HX  96
6HR MIN TEMP:  87; 6HR MAX TEMP:  94;

*SOUTH PADRE   SUNNY     86  77  74 SE12      29.93S HX  97
HARLINGEN      SUNNY     91  75  59 SE22G28   29.89S HX 101
6HR MIN TEMP:  91; 6HR MAX TEMP: 101;

*HEBBRONVILLE  SUNNY    102  54  20 E12G17    29.87F HX 100
MCALLEN        SUNNY     95  71  45 SE24G31   29.87R HX 102
6HR MIN TEMP:  95; 6HR MAX TEMP: 104;

*WESLACO       SUNNY     93  69  44 SE17G25   29.87S HX  98
6HR MIN TEMP:  93; 6HR MAX TEMP: 102;